Regional Weather Roundup
Issued by NWS Mobile, AL

Home | Current Version | Previous Version | Text Only | Print | Product List | Glossary On
Versions: 1 2 3 4 5 6 7 8 9 10 11 12 13 14 15 16 17 18 19 20 21 22 23 24 25 26 27 28 29 30 31 32 33 34 35 36 37 38 39 40 41 42 43 44 45 46 47 48 49 50
000
ASUS44 KMOB 221110
RWRMOB
REGIONAL WEATHER ROUNDUP
NATIONAL WEATHER SERVICE MOBILE AL
600 AM CDT MON SEP 22 2014

NOTE: "FAIR" INDICATES FEW OR NO CLOUDS BELOW 12,000 FEET WITH NO
      SIGNIFICANT WEATHER AND/OR OBSTRUCTIONS TO VISIBILITY.

  * THESE STATIONS ARE PART OF THE UNIVERSITY OF SOUTH ALABAMA
    MESONET AND ARE NOT UNDER NWS OR FAA QUALITY CONTROL.

ALZ061>064-221200-
COASTAL ALABAMA

CITY           SKY/WX    TMP DP  RH WIND       PRES   REMARKS
MOBILE REG APT PTCLDY    66  66 100 CALM      30.02S
BROOKLEY FIELD CLEAR     68  67  96 CALM      30.02S
USA CAMPUS*      N/A     68  68 100 CALM      30.01S
DOG RIVER*     NOT AVBL


CITY           SKY/WX    TMP DP  RH WIND       PRES   REMARKS
MOUNT VERNON*    N/A     61  59  94 CALM      30.01
SARALAND*      NOT AVBL
BAY MINETTE*   NOT AVBL
LOXLEY*          N/A    N/A N/A N/A CALM      30.02R
ROBERTSDALE*     N/A    N/A N/A N/A CALM      30.01S
FAIRHOPE*        N/A     66  66 100 CALM      30.01R
ELBERTA*         N/A     66  52  59 CALM      30.00R
FOLEY*         NOT AVBL
GRAND BAY*       N/A     64  64 100 CALM      30.00R
DAUPHIN ISLND* NOT AVBL
BON SCOUR NWR* NOT AVBL
GULF SHORES    CLEAR     65  64  98 CALM      30.01R

$$

ALZ051>060-221200-
INTERIOR SOUTHWEST AND SOUTH CENTRAL ALABAMA

CITY           SKY/WX    TMP DP  RH WIND       PRES   REMARKS
GREENVILLE     PTCLDY    71  67  87 NW3       30.00S
EVERGREEN      PTCLDY    67  64  90 CALM      30.02R
CASTLEBERRY*   NOT AVBL
ATMORE*          N/A     70  68  94 CALM      30.03R
DIXIE*         NOT AVBL
ANDALUSIA/OPP  PTCLDY    70  65  84 CALM      30.00F
ANDALUSIA*     NOT AVBL
FLORALA APT    CLEAR     67  64  90 CALM      30.03R
FLORALA*         N/A     64  63  94 CALM      29.99R

$$

FLZ001>006-221200-
WESTERN FLORIDA PANHANDLE

CITY           SKY/WX    TMP DP  RH WIND       PRES   REMARKS
PENSACOLA      CLEAR     68  66  93 NW5       30.01R
NAS PENSACOLA  PTCLDY    67  65  93 NW5       30.00S
MILTON         CLEAR     67  63  87 CALM      30.01R
WHTNG S FIELD  CLEAR     65  62  90 CALM      30.02R


CITY           SKY/WX    TMP DP  RH WIND       PRES   REMARKS
WALNUT HILL*   NOT AVBL
JAY*           NOT AVBL
DUKE FIELD     CLEAR     63  63 100 CALM      30.01R
CRESTVIEW      CLEAR     62  61  96 CALM      30.03R FOG
VALPARAISO     CLEAR     68  65  92 CALM      30.01R
DESTIN         CLEAR     73  69  87 N5        30.00R

$$

MSZ076-079-221200-
INTERIOR SOUTHEAST MISSISSIPPI

CITY           SKY/WX    TMP DP  RH WIND       PRES   REMARKS
LEAKESVILLE*     N/A     66  66 100 CALM      30.03R
AGRICOLA*      NOT AVBL

$$

MARINE OBSERVATIONS

STATION/POSITION TIME  TEMP    WIND        PRES    WAVE
                       AIR SEA DIR/SP/G            HT/PER
                 (UTC) (F)     (DEG/KT/KT) (MB)    (FT/S)
PASCAGOULA       1100   73     340/  3/  3 1016.0R
PETIT BOIS ISLND 1100   79     350/  6/  7 1016.5R
GRAND BAY        1000   71      10/  3     1017.0S
KATRINA CUT      1000   78     360/  7     1016.6R
CEDAR POINT      1000   74     350/  5     1016.3R
E DAUPHIN ISLAND 1000   80     340/  5/  6 1015.8R
MIDDLE BAY LIGHT 1000   78     330/  6     1015.9R
USCG MOBILE BAY  1100      84              1015.0S
STATE DOCKS      1100   74 86              1015.8S
MEAHER PARK      1000   73      30/  1     1015.9S
WEEKS BAY        1000   67                   N/A
FORT MORGAN      1100   79      10/  4/  5 1015.7R
12 S ORANGE BCH  1100   80 85  360/  8/ 10 1016.0R   2/ 5
PENSACOLA BAY    1100   74 84  350/  3/  5 1016.2R
64 S DAUPHIN ISL 0951   82 84   60/  8/ 10 1015.7R
67 S FORT MORGAN 0900   80                 1014.2F

$$

SELECTED LOCATIONS ACROSS THE REGION

CITY           SKY/WX    TMP DP  RH WIND       PRES   REMARKS
NEW ORLEANS    PTCLDY    73  70  90 NW3       30.02R
GULFPORT       CLEAR     69  67  93 CALM      30.00S
PASCAGOULA AP  CLEAR     65  65 100 CALM      30.01S FOG
PASCAGOULA*    NOT AVBL
HATTIESBURG    PTCLDY    68  66  93 CALM      30.03R
LAUREL         PTCLDY    68  63  83 CALM      30.03S
MERIDIAN       MOCLDY    71  64  78 N7        30.05R
JACKSON        PTCLDY    72  61  68 N10       30.06R
MONTGOMERY     MOCLDY    71  65  81 CALM      30.00S
TROY           PTCLDY    66  64  93 CALM      30.01S
KINSTON*       NOT AVBL
GENEVA*        NOT AVBL
ASHFORD*       NOT AVBL
DOTHAN         CLEAR     66  65  96 CALM      30.04S
PANAMA CITY    CLEAR     65  62  90 CALM      30.00R

$$



USA.gov is the U.S. government's official web portal to all federal, state and local government web resources and services.